Barnwell, SC

8:55 PM EST on November 22, 2019 (GMT -0500)
Barnwell County

Weather History for KBNL - September, 2019

Change the Weather History Date:

Sunday, September 22, 2019

  Actual Average (KOGB) Record (KOGB)
Temperature  
Mean Temperature 72 °F 73 °F  
Max Temperature 89 °F 84 °F 95 °F (1954)
Min Temperature 55 °F 63 °F 50 °F (1981)
Degree Days  
Heating Degree Days 0 0  
Month to date heating degree days 0  
Since 1 July heating degree days 0  
Cooling Degree Days 7 9  
Month to date cooling degree days 243  
Year to date cooling degree days 1936  
Growing Degree Days 22 (Base 50)    
Moisture  
Dew Point 56 °F    
Average Humidity 62    
Maximum Humidity 100    
Minimum Humidity 25    
Precipitation  
Precipitation 0.00 in 0.12 in 2.93 in (1989)
Month to date precipitation 2.76  
Year to date precipitation 36.07  
Sea Level Pressure  
Sea Level Pressure 30.19 in    
Wind  
Wind Speed 1 mph (ESE)    
Max Wind Speed 9 mph    
Max Gust Speed 13 mph    
T = Trace of Precipitation, MM = Missing Value Source: NWS Daily Summary

Daily Weather History Graph

Daily Weather History Graph

Search for Another Location

Airport or City:

Astronomy

Sep. 22, 2019 Rise Set
Actual Time 7:13 AM EDT 7:22 PM EDT
Civil Twilight 6:48 AM EDT 7:47 PM EDT
Nautical Twilight 6:19 AM EDT 8:16 PM EDT
Astronomical Twilight 5:50 AM EDT 8:45 PM EDT
Moon 12:19 AM EDT (9/22) 2:57 PM EDT (9/22)
Length of Visible Light 12h 58m
Length of Day
12h 09m
Last Quarter, 44% of the Moon is Illuminated
Sep 22
Last Quarter
Sep 28
New
Oct 5
First Quarter
Oct 13
Full
Oct 21
Last Quarter

Hourly Weather History & Observations

Time (EDT) Temp. Heat Index Dew Point Humidity Pressure Visibility Wind Dir Wind Speed Gust Speed Precip Events Conditions
12:15 AM 64.4 °F - 60.8 °F 88% 30.25 in - Calm Calm - N/A   Clear
12:35 AM 64.4 °F - 60.8 °F 88% 30.25 in - Calm Calm - N/A   Unknown
12:55 AM 62.6 °F - 60.8 °F 94% 30.24 in - Calm Calm - N/A   Unknown
1:15 AM 62.6 °F - 59.0 °F 88% 30.24 in - Calm Calm - N/A   Unknown
2:55 AM 59.0 °F - 57.2 °F 94% 30.23 in - Calm Calm - N/A   Unknown
3:15 AM 59.0 °F - 59.0 °F 100% 30.22 in - Calm Calm - N/A   Unknown
3:35 AM 59.0 °F - 57.2 °F 94% 30.22 in - Calm Calm - N/A   Unknown
3:55 AM 59.0 °F - 57.2 °F 94% 30.22 in - Calm Calm - N/A   Unknown
4:15 AM 57.2 °F - 55.4 °F 94% 30.21 in - Calm Calm - N/A   Unknown
4:35 AM 59.0 °F - 57.2 °F 94% 30.21 in - Calm Calm - N/A   Unknown
4:55 AM 57.2 °F - 57.2 °F 100% 30.21 in - Calm Calm - N/A   Unknown
5:15 AM 59.0 °F - 57.2 °F 94% 30.22 in - Calm Calm - N/A   Unknown
5:35 AM 57.2 °F - 57.2 °F 100% 30.22 in - Calm Calm - N/A   Mostly Cloudy
5:55 AM 57.2 °F - 55.4 °F 94% 30.22 in - Calm Calm - N/A   Mostly Cloudy
6:15 AM 57.2 °F - 55.4 °F 94% 30.23 in - Calm Calm - N/A   Overcast
6:35 AM 57.2 °F - 55.4 °F 94% 30.23 in - Calm Calm - N/A   Mostly Cloudy
6:55 AM 55.4 °F - 55.4 °F 100% 30.23 in - Calm Calm - N/A   Unknown
7:35 AM 55.4 °F - 53.6 °F 94% 30.24 in - Calm Calm - N/A   Unknown
7:55 AM 57.2 °F - 55.4 °F 94% 30.24 in - Calm Calm - N/A   Unknown
8:15 AM 60.8 °F - 57.2 °F 88% 30.24 in - Calm Calm - N/A   Unknown
8:55 AM 66.2 °F - 62.6 °F 88% 30.25 in - Calm Calm - N/A   Clear
9:15 AM 68.0 °F - 62.6 °F 83% 30.25 in - Calm Calm - N/A   Clear
9:35 AM 71.6 °F - 64.4 °F 78% 30.26 in - Calm Calm - N/A   Clear
9:55 AM 73.4 °F - 62.6 °F 69% 30.26 in - Calm Calm - N/A   Clear
10:15 AM 77.0 °F - 60.8 °F 57% 30.26 in - Calm Calm - N/A   Clear
10:35 AM 78.8 °F - 59.0 °F 51% 30.26 in - Calm Calm - N/A   Clear
10:55 AM 78.8 °F - 55.4 °F 44% 30.26 in - Calm Calm - N/A   Clear
11:15 AM 80.6 °F 80.8 °F 57.2 °F 45% 30.25 in - Calm Calm - N/A   Clear
11:35 AM 80.6 °F 80.5 °F 55.4 °F 42% 30.24 in - SW 3.5 mph - N/A   Clear
11:55 AM 80.6 °F 80.3 °F 53.6 °F 39% 30.23 in - Variable 6.9 mph - N/A   Clear
12:15 PM 82.4 °F 81.4 °F 53.6 °F 37% 30.23 in - SE 8.1 mph - N/A   Clear
12:35 PM 82.4 °F - 51.8 °F 35% 30.22 in - Variable 4.6 mph - N/A   Clear
12:55 PM 84.2 °F 82.8 °F 53.6 °F 35% 30.21 in - NNE 5.8 mph - N/A   Clear
1:15 PM 84.2 °F - 51.8 °F 33% 30.20 in - Calm Calm - N/A   Clear
1:35 PM 86.0 °F - 51.8 °F 31% 30.19 in - NE 8.1 mph - N/A   Clear
1:55 PM 86.0 °F - 48.2 °F 27% 30.17 in - SE 8.1 mph - N/A   Clear
2:15 PM 86.0 °F - 50.0 °F 29% 30.16 in - Calm Calm - N/A   Clear
2:35 PM 86.0 °F - 48.2 °F 27% 30.16 in - Calm Calm 12.7 mph N/A   Clear
2:55 PM 86.0 °F - 48.2 °F 27% 30.15 in - Variable 4.6 mph - N/A   Clear
3:35 PM 87.8 °F - 48.2 °F 25% 30.13 in - Calm Calm - N/A   Clear
3:55 PM 87.8 °F - 48.2 °F 25% 30.12 in - East 5.8 mph - N/A   Clear
4:15 PM 87.8 °F - 48.2 °F 25% 30.12 in - Calm Calm - N/A   Clear
4:55 PM 87.8 °F - 50.0 °F 27% 30.11 in - ESE 6.9 mph - N/A   Clear
5:35 PM 89.6 °F - 50.0 °F 26% 30.11 in - Calm Calm - N/A   Clear
5:55 PM 87.8 °F - 48.2 °F 25% 30.10 in - East 8.1 mph - N/A   Clear
6:15 PM 87.8 °F - 50.0 °F 27% 30.11 in - East 3.5 mph - N/A   Clear
6:35 PM 87.8 °F - 50.0 °F 27% 30.11 in - Calm Calm - N/A   Clear
6:55 PM 86.0 °F - 51.8 °F 31% 30.11 in - Calm Calm - N/A   Clear
7:15 PM 84.2 °F - 51.8 °F 33% 30.11 in - Calm Calm - N/A   Clear
8:15 PM 77.0 °F - 57.2 °F 50% 30.13 in - SE 6.9 mph - N/A   Clear
8:35 PM 77.0 °F - 60.8 °F 57% 30.13 in - SE 6.9 mph - N/A   Partly Cloudy
8:55 PM 77.0 °F - 62.6 °F 61% 30.14 in - SE 6.9 mph - N/A   Partly Cloudy
9:15 PM 75.2 °F - 62.6 °F 65% 30.14 in - SE 9.2 mph - N/A   Partly Cloudy
9:35 PM 75.2 °F - 62.6 °F 65% 30.15 in - SE 5.8 mph - N/A   Scattered Clouds
9:55 PM 73.4 °F - 62.6 °F 69% 30.15 in - SSE 4.6 mph - N/A   Scattered Clouds
10:55 PM 71.6 °F - 62.6 °F 73% 30.15 in - SE 3.5 mph - N/A   Scattered Clouds
11:15 PM 71.6 °F - 62.6 °F 73% 30.15 in - SE 3.5 mph - N/A   Partly Cloudy
11:55 PM 68.0 °F - 62.6 °F 83% 30.15 in - Calm Calm - N/A   Scattered Clouds